Weather History for Cody, WY

Change the Weather History Date:

Thursday, March 21, 2013

  Actual Average Record
Temperature  
Mean Temperature 34 °F -  
Max Temperature 44 °F 49 °F 72 °F (1928)
Min Temperature 24 °F 25 °F -4 °F (2002)
Degree Days  
Heating Degree Days 31    
Moisture  
Dew Point 23 °F    
Average Humidity 67    
Maximum Humidity 93    
Minimum Humidity 26    
Precipitation  
Precipitation 0.00 in - - ()
Sea Level Pressure  
Sea Level Pressure 29.67 in    
Wind  
Wind Speed 10 mph (NW)    
Max Wind Speed 21 mph    
Max Gust Speed 33 mph    
Visibility 9 miles    
Events      
Averages and records for this station are not official NWS values.
T = Trace of Precipitation, MM = Missing Value Source: NWS Daily Summary

Daily Weather History Graph

Daily Weather History Graph

Search for Another Location

Airport:

Trip Planner

Search our weather history database for the weather conditions in past years. The results will help you decide how hot, cold, wet, or windy it might be!

Date:

Astronomy

Mar. 21, 2013 Rise Set
Actual Time 7:16 AM MDT 7:30 PM MDT
Civil Twilight 6:47 AM MDT 7:59 PM MDT
Nautical Twilight 6:13 AM MDT 8:33 PM MDT
Astronomical Twilight 5:38 AM MDT 9:08 PM MDT
Moon 1:51 PM MDT (3/21) 3:52 AM MDT (3/21)
Length of Visible Light 13h 11m
Length of Day
12h 13m
Waxing Gibbous, 69% of the Moon is Illuminated
Mar 21
Waxing Gibbous
Mar 27
Full
Apr 2
Last Quarter
Apr 10
New
Apr 18
First Quarter

Hourly Weather History & Observations

Time (MDT) Temp. Windchill Dew Point Humidity Pressure Visibility Wind Dir Wind Speed Gust Speed Precip Events Conditions
12:16 AM 37.4 °F 30.8 °F 24.8 °F 60% 29.59 in 10.0 mi South 9.2 mph - N/A   Clear
12:35 AM 37.4 °F 31.4 °F 24.8 °F 60% 29.57 in 10.0 mi SE 8.1 mph - N/A   Clear
1:15 AM 37.4 °F 31.4 °F 21.2 °F 52% 29.56 in 10.0 mi South 8.1 mph - N/A   Clear
1:35 AM 37.4 °F 30.8 °F 21.2 °F 52% 29.55 in 10.0 mi South 9.2 mph - N/A   Clear
1:55 AM 37.4 °F 31.4 °F 23.0 °F 56% 29.55 in 10.0 mi SSW 8.1 mph - N/A   Mostly Cloudy
2:15 AM 37.4 °F - 23.0 °F 56% 29.56 in 10.0 mi Calm Calm - N/A   Overcast
2:35 AM 42.8 °F 39.3 °F 24.8 °F 49% 29.55 in 10.0 mi SW 5.8 mph - N/A   Overcast
3:15 AM 42.8 °F 37.5 °F 32.0 °F 66% 29.55 in 10.0 mi West 9.2 mph - N/A   Overcast
3:35 AM 42.8 °F 38.6 °F 33.8 °F 70% 29.54 in 10.0 mi West 6.9 mph - N/A   Overcast
3:55 AM 41.0 °F 37.1 °F 32.0 °F 70% 29.52 in 10.0 mi West 5.8 mph - N/A   Mostly Cloudy
4:15 AM 41.0 °F 37.1 °F 32.0 °F 70% 29.52 in 10.0 mi WSW 5.8 mph - N/A   Scattered Clouds
4:35 AM 44.6 °F 39.7 °F 28.4 °F 53% 29.51 in 10.0 mi SW 9.2 mph - N/A   Mostly Cloudy
4:55 AM 42.8 °F 37.5 °F 28.4 °F 57% 29.51 in 10.0 mi SW 9.2 mph - N/A   Overcast
5:15 AM 37.4 °F 27.8 °F 26.6 °F 65% 29.55 in 10.0 mi North 17.3 mph - N/A   Overcast
5:35 AM 35.6 °F 25.9 °F 28.4 °F 75% 29.55 in 10.0 mi North 16.1 mph 23.0 mph N/A   Mostly Cloudy
6:15 AM 35.6 °F 28.0 °F 28.4 °F 75% 29.57 in 10.0 mi North 10.4 mph 18.4 mph N/A   Mostly Cloudy
6:35 AM 33.8 °F 23.5 °F 28.4 °F 81% 29.58 in 10.0 mi North 16.1 mph - N/A   Overcast
6:55 AM 33.8 °F 24.8 °F 28.4 °F 81% 29.59 in 10.0 mi North 12.7 mph 20.7 mph N/A   Overcast
7:15 AM 32.0 °F 23.0 °F 28.4 °F 87% 29.60 in 10.0 mi North 11.5 mph - N/A   Overcast
7:35 AM 32.0 °F 25.6 °F 28.4 °F 87% 29.63 in 3.0 mi NNW 6.9 mph - N/A   Overcast
8:15 AM 30.2 °F 18.5 °F 28.4 °F 93% 29.61 in 1.0 mi North 17.3 mph - N/A   Overcast
8:35 AM 30.2 °F 19.3 °F 28.4 °F 93% 29.62 in 5.0 mi North 15.0 mph - N/A   Overcast
8:55 AM 30.2 °F 18.5 °F 28.4 °F 93% 29.62 in 5.0 mi North 17.3 mph - N/A   Overcast
9:15 AM 30.2 °F 17.8 °F 28.4 °F 93% 29.62 in 7.0 mi North 19.6 mph - N/A   Overcast
9:55 AM 30.2 °F 18.9 °F 28.4 °F 93% 29.64 in 10.0 mi North 16.1 mph 20.7 mph N/A   Overcast
10:35 AM 30.2 °F 18.9 °F 26.6 °F 86% 29.65 in 10.0 mi North 16.1 mph 19.6 mph N/A   Overcast
10:55 AM 30.2 °F 18.5 °F 26.6 °F 86% 29.66 in 10.0 mi North 17.3 mph 21.9 mph N/A   Overcast
11:15 AM 30.2 °F 18.1 °F 26.6 °F 86% 29.66 in 10.0 mi North 18.4 mph - N/A   Overcast
11:55 AM 30.2 °F 19.3 °F 26.6 °F 86% 29.68 in 10.0 mi North 15.0 mph - N/A   Overcast
12:15 PM 30.2 °F 19.3 °F 24.8 °F 80% 29.69 in 10.0 mi North 15.0 mph 19.6 mph N/A   Overcast
12:35 PM 32.0 °F 20.1 °F 24.8 °F 75% 29.69 in 10.0 mi North 19.6 mph 25.3 mph N/A   Overcast
12:55 PM 30.2 °F 18.9 °F 26.6 °F 86% 29.70 in 3.0 mi North 16.1 mph 24.2 mph N/A   Overcast
1:55 PM 33.8 °F 23.5 °F 28.4 °F 81% 29.70 in 1.8 mi North 16.1 mph - N/A   Overcast
2:15 PM 33.8 °F 27.0 °F 26.6 °F 75% 29.71 in 2.0 mi North 8.1 mph - N/A   Overcast
2:35 PM 35.6 °F 27.1 °F 28.4 °F 75% 29.70 in 4.0 mi NNE 12.7 mph 17.3 mph N/A   Overcast
2:55 PM 37.4 °F 32.8 °F 26.6 °F 65% 29.70 in 10.0 mi North 5.8 mph 18.4 mph N/A   Mostly Cloudy
3:15 PM 35.6 °F 26.6 °F 26.6 °F 70% 29.70 in 10.0 mi North 13.8 mph - N/A   Mostly Cloudy
3:35 PM 35.6 °F 32.8 °F 24.8 °F 65% 29.71 in 10.0 mi NNW 3.5 mph - N/A   Mostly Cloudy
3:55 PM 37.4 °F - 24.8 °F 60% 29.71 in 10.0 mi Calm Calm - N/A   Mostly Cloudy
4:15 PM 37.4 °F 32.1 °F 21.2 °F 52% 29.71 in 10.0 mi NW 6.9 mph - N/A   Mostly Cloudy
4:35 PM 41.0 °F 32.2 °F 15.8 °F 36% 29.71 in 10.0 mi WSW 18.4 mph 27.6 mph N/A   Overcast
4:55 PM 39.2 °F 29.3 °F 12.2 °F 33% 29.71 in 10.0 mi West 20.7 mph 33.4 mph N/A   Overcast
5:15 PM 39.2 °F 30.5 °F 10.4 °F 31% 29.71 in 10.0 mi West 16.1 mph 29.9 mph N/A   Overcast
5:35 PM 39.2 °F 30.2 °F 10.4 °F 31% 29.72 in 10.0 mi WNW 17.3 mph 25.3 mph N/A   Scattered Clouds
5:55 PM 39.2 °F 31.2 °F 8.6 °F 28% 29.73 in 10.0 mi West 13.8 mph 20.7 mph N/A   Partly Cloudy
6:15 PM 39.2 °F 31.2 °F 6.8 °F 26% 29.74 in 10.0 mi West 13.8 mph 19.6 mph N/A   Clear
6:35 PM 37.4 °F 30.3 °F 10.4 °F 33% 29.75 in 10.0 mi WSW 10.4 mph 21.9 mph N/A   Clear
6:55 PM 37.4 °F 28.5 °F 10.4 °F 33% 29.76 in 10.0 mi WSW 15.0 mph 21.9 mph N/A   Clear
7:35 PM 33.8 °F 25.3 °F 14.0 °F 44% 29.77 in 10.0 mi West 11.5 mph 17.3 mph N/A   Clear
8:15 PM 32.0 °F 27.5 °F 12.2 °F 44% 29.78 in 10.0 mi West 4.6 mph - N/A   Clear
9:15 PM 26.6 °F 20.0 °F 19.4 °F 74% 29.80 in 10.0 mi NNE 5.8 mph - N/A   Clear
9:35 PM 24.8 °F 19.1 °F 19.4 °F 80% 29.81 in 10.0 mi North 4.6 mph - N/A   Clear
9:55 PM 26.6 °F - 19.4 °F 74% 29.82 in 10.0 mi Calm Calm - N/A   Mostly Cloudy
10:15 PM 26.6 °F 21.2 °F 21.2 °F 80% 29.83 in 10.0 mi West 4.6 mph - N/A   Overcast
10:36 PM 26.6 °F 21.2 °F 21.2 °F 80% 29.84 in 10.0 mi West 4.6 mph - N/A   Overcast
10:55 PM 26.6 °F - 21.2 °F 80% 29.84 in 10.0 mi Calm Calm - N/A   Overcast
11:15 PM 26.6 °F 22.6 °F 21.2 °F 80% 29.84 in 10.0 mi WNW 3.5 mph - N/A   Overcast
11:35 PM 26.6 °F 20.0 °F 21.2 °F 80% 29.85 in 8.0 mi NNE 5.8 mph - N/A   Overcast
11:55 PM 26.6 °F 20.0 °F 21.2 °F 80% 29.85 in 4.0 mi NNE 5.8 mph - N/A   Overcast